Current weather by "City, St" or "zip code"  
 

Current Conditions: Big Horn County Airport, MT

Mostly Cloudy


50.0 F

Last Updated on Oct 21 2021, 10:50 am MDT
Humidity: 67%
Wind Speed: SE 4.6 mph
Barometer 30.14 in
Dewpoint: 39.2 F
Visibility: 10.00 mi
Precip: --
Heat Index: NA
Wind Chill: 48 F
Current conditions at:

Big Horn County Airport, MT (K00U)

Lat: 45.74439 Lon: 107.66044

Local Radar Image active severe weather and emergency alerts image image weather storm and storm spotter reports image weather observation monitoring service image
Local
Radar
Active
Alerts
Storm Reports Obs
Monitoring

Sign-up For Email & Text Message Weather Alert Notification Services



Advertise Here

Observation History for Big Horn County Airport, MT


Time Wind
(mph)
Vis
(mi)
Weather Precip (in) Temperature (F) Relative
Humidity
Wind
Chill
(F)
Heat
Index
(F)
Pressure
Air Dwpt altimeter
(in)
sea level
(mb)
Rmks
10:50 am MDT SE 4.6 10.00 Mostly Cloudy -- 50.0 39.2 67% 48 NA 30.14 M
9:50 am MDT SE 3.5 10.00 Partly Cloudy -- 41.0 37.4 87% NA NA 30.16 M
8:50 am MDT SE 6.9 10.00 A Few Clouds -- 36.0 33.8 93% 30 NA 30.16 M
7:50 am MDT SE 3.5 10.00 Partly Cloudy -- 32.0 28.4 87% NA NA 30.14 M
6:55 am MDT S 4.6 10.00 Fair -- 30.0 30.2 100% 25 NA 30.14 M
5:50 am MDT S 5.8 10.00 Partly Cloudy -- 32.0 28.4 87% 26 NA 30.14 M
4:55 am MDT SE 5.8 10.00 Fair -- 30.0 28.4 93% 24 NA 30.13 M
3:50 am MDT S 5.8 10.00 A Few Clouds -- 34.0 28.4 81% 29 NA 30.12 M
2:55 am MDT S 4.6 10.00 Fair -- 34.0 30.2 87% 30 NA 30.11 M
1:55 am MDT SW 8.1 10.00 A Few Clouds -- 34.0 30.2 87% 27 NA 30.09 M
12:55 am MDT SW 8.1 10.00 Fair -- 34.0 30.2 87% 27 NA 30.09 M
11:55 pm MDT N 0.0 10.00 Fair -- 36.0 30.2 81% NA NA 30.09 M
10:50 pm MDT NW 3.5 10.00 Mostly Cloudy -- 39.0 32.0 75% NA NA 30.09 M
9:55 pm MDT N 0.0 10.00 Mostly Cloudy -- 37.0 32.0 81% NA NA 30.08 M
9:35 pm MDT N 0.0 10.00 A Few Clouds -- 37.0 30.2 75% NA NA 30.08 M
8:55 pm MDT W 5.8 10.00 A Few Clouds -- 37.0 28.4 70% 32 NA 30.08 M
7:55 pm MDT NW 5.8 10.00 Fair -- 39.0 28.4 65% 35 NA 30.07 M
6:55 pm MDT N 3.5 10.00 Fair -- 46.0 30.2 53% NA NA 30.07 M
5:55 pm MDT NE 4.6 10.00 Fair -- 50.0 30.2 47% 48 NA 30.07 M
4:55 pm MDT N 0.0 10.00 Fair -- 50.0 28.4 43% NA NA 30.09 M
3:55 pm MDT SE 4.6 10.00 Fair -- 50.0 26.6 40% 48 NA 30.09 M
2:55 pm MDT E 5.8 10.00 Fair -- 50.0 26.6 40% 48 NA 30.09 M
1:55 pm MDT E 8.1 10.00 Fair -- 48.0 32.0 54% 44 NA 30.11 M
12:55 pm MDT SE 6.9 G 12.7 10.00 Fair -- 46.0 32.0 57% 42 NA 30.16 M

Regional Weather Observation


Billings, Billings Logan International Airport, MT (KBIL)

Partly Cloudy
53.0 F

Laurel Municipal Airport, MT (K6S8)

NULL
57.0 F

N BAR Ranch Airport, MT (KMVH)

Overcast
54.0 F

Cowley WY, WY (KU68)

Fair
50.0 F

Powell Municipal Airport, WY (KPOY)

Fair
46.0 F

Big Timber Airport, MT (K6S0)

Overcast
55.0 F

Advertise Here


Advertise Here